Terug naar catalogus

COSMOS 2499 DEB

ActiefPO
NORAD 56574·DEBRIS·🇷🇺 Russia

Gelanceerd May 23, 2014 vanaf Plesetsk Cosmodrome

Loading…

Volgende Passages (komende 24 uur)

TLE

VerouderendSource: Space-Track

Epoch: Sep 7, 2026, 02:09 UTC

1 56574U 14028BH  26250.08988039  .00006337  00000-0  18182-1 0  9992
2 56574  82.4122 177.1011 0227903  86.4268 276.2878 13.01578394171946

Volg COSMOS 2499 DEB in realtime met AllMySat

Download on the App Store